This is the latest recevied weather packets stored in our database for station/object AE5PL. If no packets are shown the sender has not sent any weather packets the latest 10 day(s).
| Time | Temp. | Humidity | Pressure | Rain* | Wind** | Luminosity | Snow |
|---|---|---|---|---|---|---|---|
| 1778020650 | 30° C | 50% | 1002.9 hPa | - | - | - | - |
| 1778020350 | 31.11° C | 48% | 1002.8 hPa | - | - | - | - |
| 1778020050 | 32.22° C | 53% | 1002.4 hPa | - | - | - | - |
| 1778019750 | 31.67° C | 55% | 1002.4 hPa | - | - | - | - |
| 1778019450 | 31.67° C | 55% | 1002.5 hPa | - | - | - | - |
| 1778019150 | 31.11° C | 55% | 1002.4 hPa | - | - | - | - |
| 1778018849 | 31.11° C | 54% | 1002.4 hPa | - | - | - | - |
| 1778018549 | 31.11° C | 55% | 1002.7 hPa | - | - | - | - |
| 1778018250 | 31.11° C | 55% | 1002.7 hPa | - | - | - | - |
| 1778017949 | 31.67° C | 53% | 1002.8 hPa | - | - | - | - |
| 1778017650 | 31.67° C | 53% | 1002.8 hPa | - | - | - | - |
| 1778017350 | 32.22° C | 54% | 1002.7 hPa | - | - | - | - |
| 1778017050 | 32.22° C | 54% | 1002.8 hPa | - | - | - | - |
| 1778016749 | 31.67° C | 58% | 1002.9 hPa | - | - | - | - |
| 1778016449 | 31.11° C | 58% | 1002.8 hPa | - | - | - | - |
| 1778016150 | 31.11° C | 58% | 1002.9 hPa | - | - | - | - |
| 1778015850 | 31.11° C | 56% | 1002.9 hPa | - | - | - | - |
| 1778015550 | 31.67° C | 53% | 1003.1 hPa | - | - | - | - |
| 1778015249 | 31.67° C | 54% | 1003.1 hPa | - | - | - | - |
| 1778014949 | 31.67° C | 57% | 1003.1 hPa | - | - | - | - |
| 1778014649 | 31.67° C | 55% | 1003.2 hPa | - | - | - | - |
| 1778014349 | 31.67° C | 54% | 1003.2 hPa | - | - | - | - |
| 1778014049 | 31.67° C | 58% | 1003.2 hPa | - | - | - | - |
| 1778013749 | 31.11° C | 59% | 1003.2 hPa | - | - | - | - |
| 1778013449 | 30.56° C | 59% | 1003.4 hPa | - | - | - | - |
* Rain since midnight (hover to see other rain measurements)
** Current wind speed in m/s (hover to see current wind gust speed)